Location: ??
(35.5052°N, 139.7262°E)
Time: 02:44:57
(UTC+00:00)

CBERS-1 - Pass Details

Date: 20 June 2021
Orbit: 770 x 776 km, 98.7° (Epoch: 26 July)

Event Time Altitude Azimuth Distance (km) Brightness Sun altitude
Rises 17:05:20 0° 14° (NNE) 3,261 8.5 -22.1°
Reaches altitude 10° 17:07:39 10° 16° (NNE) 2,330 7.5 -21.8°
Maximum altitude 17:12:48 77° 102° (ESE) 798 4.0 -21.2°
Enters shadow 17:14:45 39° 182° (S) 1,155 4.5 -21.0°
